Terug naar catalogus

STARLINK-5587

ActiefCommunicatieVLEO
NORAD 57245·PAYLOAD·🇺🇸 United States

Gelanceerd Jul 7, 2023 vanaf Vandenberg Space Force Base

Loading…

Volgende Passages (komende 24 uur)

TLE

VersSource: CelesTrak SupGP

Epoch: Sep 14, 2026, 14:40 UTC

1 57245C 23094AD  26257.61159722 -.00019525  00000+0 -70738-3 0  2574
2 57245  43.0047  33.2610 0001950 275.7523 298.3662 15.27579049    10

Volg STARLINK-5587 in realtime met AllMySat

Download on the App Store